CAPE
0 0 0 0 0 0 0 0 0 0 0 0 0 0 0 5 20 14 11 20 7 24 32 29 23 31 23 13 12 1 1 7 4 0 3 9 1 1 2 2 2 1 1
0 0 0 0 0 0 0 0 0 0 0 0 0 0 4 7 10 9 19 4 8 11 24 19 27 0 6 17 21 0 2 7 6 1 2 8 5 0 0 2 0 0 1
0 0 0 0 0 0 0 0 0 0 0 0 0 3 5 5 4 6 0 3 11 11 26 7 14 0 6 15 30 0 0 0 26 23 14 7 10 0 0 1 2 0 0
0 0 0 0 1 0 0 0 1 1 0 0 2 4 6 5 2 0 0 2 5 12 18 23 13 1 1 15 18 7 0 0 0 6 10 13 5 0 0 3 0 0 0
0 0 0 0 0 0 0 0 0 0 2 6 5 8 10 9 0 0 0 0 2 10 10 22 12 3 8 13 10 9 5 0 3 24 32 15 11 3 0 1 3 2 0
0 0 0 0 0 0 2 0 0 3 8 9 8 12 9 7 0 0 0 0 8 6 13 17 9 13 7 8 0 0 0 3 22 24 21 19 5 10 0 1 3 1 2
0 0 0 0 0 0 0 0 1 5 11 11 13 14 2 3 0 0 0 0 5 10 0 3 9 12 8 0 0 0 10 7 29 14 15 12 21 19 8 0 1 2 2
0 0 0 0 0 0 0 0 1 5 5 9 18 15 2 8 0 0 0 1 3 1 2 8 14 12 0 0 0 0 4 3 17 0 21 28 22 16 14 10 0 2 2
0 0 0 0 0 0 0 0 0 1 3 9 13 13 12 5 0 0 0 3 4 1 2 6 0 0 0 0 0 3 2 2 1 0 6 9 6 14 2 17 0 1 1
0 0 0 0 0 0 0 0 0 1 0 3 9 17 14 0 0 0 0 1 4 7 6 3 1 0 0 0 0 9 3 0 0 1 0 24 28 26 11 19 0 0 2
0 0 0 0 0 0 0 0 0 0 1 6 7 11 12 12 2 0 0 0 5 3 8 3 12 6 0 0 0 10 14 0 2 2 0 7 20 15 17 19 5 0 0
0 0 0 0 0 0 0 0 0 0 0 0 0 1 2 13 0 0 0 0 0 4 5 10 7 0 0 0 3 1 0 0 2 1 1 0 0 3 12 23 21 4 0
0 0 0 0 0 0 0 0 0 0 0 0 0 0 1 0 1 0 0 0 2 2 10 0 0 0 0 2 2 0 1 5 6 5 3 2 3 0 2 4 8 16 7
0 0 0 0 0 0 0 0 0 0 0 0 0 0 1 1 0 0 1 3 2 2 3 9 1 2 2 1 1 3 3 8 6 4 3 1 1 2 3 3 3 2 7
0 0 0 0 0 0 0 0 0 0 0 0 0 1 1 1 0 0 0 0 1 0 0 2 3 4 5 5 3 1 0 7 2 2 0 2 2 3 2 1 2 5 3
0 0 0 0 0 0 0 0 0 0 0 0 0 0 0 0 0 0 0 0 0 0 2 3 2 4 4 4 1 2 3 3 3 3 1 1 2 1 1 1 1 1 2
0 0 0 0 0 0 0 0 0 0 0 0 0 0 0 0 0 0 0 0 0 0 3 3 3 2 2 3 3 4 7 3 7 4 4 1 7 1 1 3 0 1 1
0 0 0 0 0 0 0 0 0 2 0 1 0 0 0 0 0 0 0 0 2 1 2 3 3 3 3 2 3 2 2 5 5 4 3 2 4 2 2 3 1 1 1
0 0 0 0 0 0 0 0 0 0 2 0 1 0 0 0 0 0 0 0 3 3 3 3 2 2 2 2 2 3 2 3 2 2 4 4 4 1 2 2 1 1 1
0 0 0 0 0 0 0 0 0 1 0 0 0 0 3 0 1 0 0 0 2 2 2 2 2 2 2 2 2 2 2 3 2 2 3 3 4 1 2 2 2 2 1
0 0 0 0 0 0 0 0 3 1 2 1 1 0 0 0 2 0 0 0 1 2 2 2 2 2 2 2 2 3 2 2 3 3 3 3 2 2 1 2 2 1 1
0 0 0 0 0 0 0 2 1 1 1 3 2 1 0 2 2 1 1 3 0 0 1 2 2 3 3 2 2 2 3 3 2 2 3 3 2 2 1 2 2 2 1
0 0 0 0 0 0 0 4 0 0 2 4 1 2 2 2 1 1 1 3 0 1 2 2 2 3 2 2 2 3 3 3 2 3 2 2 2 2 2 1 1 1 1
0 0 0 0 0 0 0 3 0 0 0 1 2 2 2 3 2 2 2 2 0 0 1 2 2 2 2 2 1 1 1 2 3 4 4 3 2 2 1 1 1 1 1
0 0 0 0 0 0 2 4 2 0 0 3 3 2 2 2 3 4 2 2 1 1 1 2 2 3 3 2 2 2 2 3 2 3 4 3 3 2 2 2 2 1 0
0 0 0 0 0 0 3 3 3 3 0 0 3 1 1 2 3 3 5 1 1 1 1 1 2 2 2 3 3 1 1 1 0 0 1 0 0 0 0 1 0 1 1
CIN
0 0 0 0 0 0 0 0 0 0 0 0 0 0 0 -1 -2 -3 -7 -4 -6 -2 -4 -5 -2 -3 -2 -7 -3 -1 0 0 0 0 -1 -2 -1 0 0 0 0 0 0
0 0 0 0 0 0 0 0 0 0 0 0 0 -1 -1 -2 -1 -2 -2 -4 -2 -4 -3 -2 -2 -4 -6 -5 -2 0 0 -1 -1 -1 -12 -2 -2 0 0 0 0 0 0
0 0 0 0 0 -1 0 0 0 0 0 0 -2 -2 -1 -1 -1 -2 -1 -2 -2 -3 -1 -5 -3 -1 -6 -2 -2 0 0 0 0 0 -1 -4 -1 0 0 0 0 0 0
0 0 0 0 -2 -1 -1 0 -1 0 -1 -1 -1 -1 -2 -1 -6 0 0 -2 -2 -2 -2 -2 -3 -9 -5 -2 -2 -2 0 0 -1 -3 -4 -2 -1 0 -1 0 0 0 0
0 0 0 0 -1 -1 0 0 0 -1 -1 -2 -1 -2 -2 -2 0 0 0 0 -2 -6 -2 -1 -2 -10 -2 -3 -6 -2 -1 0 -8 -2 -1 -3 -1 -1 0 0 0 0 0
0 0 0 0 0 -1 -2 0 -1 -1 -1 -1 -1 -1 -2 -1 0 0 0 0 -2 -10 -2 -2 -3 -2 -2 -5 0 0 -1 -4 -1 -1 -1 -2 -6 -1 -1 0 0 0 0
0 0 0 0 0 0 0 -1 -2 -2 -2 -2 -2 -2 -3 -2 0 0 0 0 -4 -1 -1 -9 -2 -1 -2 0 0 0 -2 -4 -5 -1 -2 -2 0 -1 -1 0 0 0 0
0 0 0 0 0 0 0 0 -1 -2 -1 -1 -3 -2 -4 -2 0 0 0 -2 -2 -4 -3 -1 -1 -1 -1 0 0 0 -2 -6 -3 -1 -2 -1 -9 -15 -4 -1 0 0 0
0 0 0 0 0 0 0 0 -1 -2 -2 -2 -2 -2 -2 -3 0 0 0 -2 -2 -2 -2 -1 -2 0 0 0 0 -2 -2 -1 -2 0 -7 -10 -24 -31 -37 -2 0 0 0
0 0 0 0 0 0 0 0 -1 -2 -1 -2 -2 -2 -2 -22 0 0 0 -5 -3 -2 -3 -4 -1 0 0 0 -1 -1 -1 -1 -1 -2 -6 -2 -2 -2 -28 -2 0 0 0
0 0 0 0 0 0 0 0 0 0 -2 -2 -3 -2 -3 -19 -8 0 0 -1 -1 -1 -1 -1 -1 -2 0 0 0 -1 -2 0 -2 -2 -1 -3 -2 -3 -4 -3 -2 0 0
0 0 0 0 0 0 0 0 0 0 0 -2 -2 -3 -3 -5 0 0 0 0 0 -1 -1 0 -1 -1 0 0 -2 -2 0 -2 -1 -1 0 0 -1 -10 -5 -1 -3 -25 0
0 0 0 0 0 0 0 0 0 0 0 0 0 0 -3 -1 -3 0 0 -1 -2 -1 0 -3 0 0 0 -2 -3 0 -5 -1 -1 -1 0 -1 -1 0 -1 -13 -8 -3 -18
0 0 0 0 0 0 0 0 0 0 0 0 0 -1 -2 -3 -1 -2 -1 -1 0 -1 -1 0 -4 -2 -3 -1 -1 -1 -2 -1 -1 0 0 0 0 0 0 0 -1 -21 -3
0 0 0 0 0 0 0 0 0 0 0 0 -2 -2 -2 -1 -1 0 0 0 -1 -1 0 -1 -1 -1 -1 -1 -1 -1 -2 -1 -1 0 -1 0 0 0 0 0 0 -1 0
0 0 0 0 0 0 0 0 0 0 0 0 0 0 -1 0 0 0 0 0 0 0 -1 0 0 0 0 0 0 -1 -1 -1 -1 -1 0 0 0 0 0 0 0 0 0
0 0 0 0 0 0 0 0 -1 0 0 0 0 0 0 0 0 0 0 0 0 0 0 0 0 0 0 0 0 0 0 -1 -1 0 0 0 -1 0 0 0 0 0 0
0 0 0 0 0 0 0 0 -1 -3 -2 -3 -1 0 0 0 0 0 0 0 0 0 0 0 0 0 0 0 0 0 0 0 0 0 0 0 -1 0 0 0 0 0 0
0 0 0 0 0 0 0 0 -2 -2 -3 0 -3 0 -2 0 0 0 0 0 0 0 0 0 0 0 0 0 0 0 0 0 0 0 0 0 0 0 0 0 0 0 0
0 0 0 0 0 0 0 0 -2 -4 -2 0 0 -1 -1 0 -1 -1 -1 0 0 0 0 0 0 0 0 0 0 0 0 0 0 0 0 0 0 0 0 0 0 0 0
0 0 0 0 0 0 0 0 -3 -3 -2 -1 -1 -1 0 -1 -1 -1 0 0 0 0 0 0 0 0 0 0 0 0 0 0 0 0 0 0 0 0 0 0 0 0 0
0 0 0 0 0 0 0 -4 -2 -4 -3 -1 -1 -1 -1 -1 -1 -1 -1 0 0 0 0 0 0 0 0 0 0 0 0 0 0 0 0 0 0 0 0 0 0 0 0
0 0 0 0 0 0 -2 -4 0 0 -2 -1 -1 -1 -1 -1 -1 -1 -2 -1 0 0 0 0 0 0 0 0 0 0 0 0 0 0 0 0 0 0 0 0 0 0 0
0 0 0 0 0 0 -2 -2 -5 -4 -4 -1 -1 0 0 -1 -1 -1 -1 -1 0 0 0 0 0 0 0 0 0 0 0 0 0 0 0 0 0 0 0 0 0 0 0
0 0 0 0 0 0 -3 -3 -2 -3 -3 -1 0 0 0 0 0 0 -1 0 0 0 0 0 0 0 0 0 0 0 0 0 0 0 0 0 0 0 0 0 0 0 0
0 0 0 0 0 0 -2 -2 -2 -4 -1 -3 -1 0 0 0 0 0 0 0 0 0 0 0 0 0 0 0 0 0 0 0 0 0 0 0 0 0 0 0 0 0 0
Wind_Speed
21 22 22 23 25 27 26 31 33 32 30 27 26 26 25 24 22 26 26 21 29 31 23 35 33 33 35 38 33 35 26 23 25 27 26 29 28 32 30 23 17 24 28
22 24 24 24 23 26 28 29 31 31 29 27 26 25 24 28 30 32 34 35 32 28 32 31 31 34 37 35 34 35 29 25 28 27 30 33 33 35 33 29 24 28 19
23 23 24 22 22 23 25 28 29 30 29 29 27 25 26 31 32 31 34 35 35 33 31 33 32 32 35 36 35 33 33 30 29 25 30 32 31 35 33 30 26 25 21
22 22 22 22 23 23 25 27 27 28 29 30 27 25 27 30 30 33 35 35 34 30 32 31 33 34 36 37 35 33 31 33 30 29 30 32 31 34 31 30 28 23 17
22 22 22 21 22 23 24 23 25 28 29 28 27 26 27 30 32 36 37 35 33 35 30 30 30 32 31 33 35 34 32 28 30 30 30 31 32 34 33 30 27 25 22
22 21 20 21 22 22 23 24 25 26 27 26 26 27 29 29 33 37 38 36 34 34 31 31 31 29 32 34 37 35 28 27 26 27 27 28 28 31 31 29 27 23 21
21 20 21 21 21 22 24 23 22 24 23 25 25 26 27 28 31 37 39 36 32 32 34 33 30 29 31 35 38 34 29 28 17 24 28 31 30 30 31 29 28 27 24
20 20 20 22 23 23 23 23 22 22 22 23 23 25 26 26 26 33 38 34 33 35 34 34 31 31 32 37 39 35 31 29 27 31 30 29 28 26 29 29 28 28 23
20 20 21 21 23 24 24 25 23 22 22 21 22 24 22 23 22 29 36 37 35 37 38 35 32 29 33 36 38 35 33 28 32 36 34 29 17 21 20 28 27 25 21
21 20 21 21 21 23 25 24 23 22 21 24 23 23 18 19 19 27 35 38 38 39 37 33 31 27 34 39 35 32 30 32 35 34 32 28 23 24 16 21 24 24 22
19 19 20 23 23 22 24 23 23 23 23 22 21 19 20 20 25 29 32 38 41 42 39 36 33 33 41 37 30 29 28 33 32 30 28 26 25 24 23 24 20 21 21
19 20 22 22 23 24 22 22 22 19 20 20 19 20 24 27 31 32 35 36 39 37 35 33 34 35 32 31 28 26 28 28 26 27 26 25 25 26 26 26 24 18 18
20 22 23 23 21 24 23 17 18 23 26 26 25 26 27 30 31 35 42 42 38 36 30 28 25 29 28 24 23 21 16 20 25 25 23 23 23 24 25 24 22 21 18
21 22 23 24 27 23 21 19 21 22 25 26 27 27 27 28 30 36 37 35 34 33 33 28 27 27 25 19 20 18 17 21 23 20 20 20 20 20 19 23 23 22 20
18 17 8 9 9 21 19 18 16 21 21 25 27 29 29 28 32 34 33 34 34 35 29 28 30 31 29 24 23 23 23 23 23 22 21 21 20 18 15 21 20 20 19
17 19 19 14 20 22 18 20 18 20 20 22 23 25 29 28 35 32 31 29 29 33 31 30 28 27 26 26 26 23 22 22 23 21 21 21 20 17 15 18 20 19 19
21 18 24 20 22 22 22 21 21 18 18 20 20 20 21 29 30 29 30 27 29 34 29 28 28 26 26 24 23 23 23 21 22 22 20 18 18 17 15 15 20 19 18
24 23 23 27 26 26 25 23 20 25 28 28 23 19 23 30 27 23 30 30 32 30 27 27 26 24 25 24 24 22 22 21 21 21 20 17 15 18 14 14 18 18 17
22 24 25 21 21 24 23 25 26 27 28 27 27 27 27 34 16 17 28 29 30 29 26 25 24 23 23 23 22 22 17 13 9 11 11 16 19 17 13 11 14 17 16
23 20 22 21 23 26 27 26 27 28 29 29 28 28 29 30 23 24 26 26 28 26 27 25 22 23 21 22 17 11 11 11 10 9 8 8 18 19 12 13 14 16 16
21 20 18 21 26 28 28 26 29 30 30 30 27 28 30 21 20 21 19 22 25 25 25 18 18 19 21 14 8 8 6 5 6 6 5 7 8 19 18 16 16 17 18
22 23 23 25 27 28 28 27 30 30 32 30 30 28 24 20 19 12 15 17 23 20 14 12 15 18 13 8 8 8 8 8 7 3 4 5 7 14 22 21 19 19 19
22 23 24 24 25 26 25 29 29 30 31 30 32 28 23 20 10 8 6 18 22 13 9 14 16 13 9 9 9 11 9 9 7 4 2 3 8 15 18 21 23 22 21
22 22 23 25 25 24 27 28 28 27 30 32 31 28 23 14 2 4 5 13 10 10 9 13 12 10 10 9 11 12 10 5 2 1 3 9 12 15 18 20 22 24 24
22 24 25 25 26 25 25 27 28 27 31 32 29 24 21 5 2 8 5 5 9 10 10 10 9 9 9 10 10 12 9 4 2 2 5 8 11 15 18 20 21 23 25
23 24 25 25 25 24 25 26 26 28 32 30 26 24 10 8 9 9 4 11 10 10 12 11 11 10 11 10 10 11 13 10 9 9 14 16 14 15 18 21 23 25 26
Wind_Direction
5 4 2 359 357 354 352 346 342 343 349 356 356 356 355 352 354 349 347 351 342 336 353 327 335 339 336 328 343 341 351 355 354 354 357 358 4 356 345 14 314 303 305
4 360 358 359 358 353 350 352 346 348 357 359 360 359 359 347 343 340 335 334 337 342 335 340 342 339 335 339 341 342 346 349 350 352 354 354 356 348 325 319 302 317 299
0 0 2 6 7 5 1 354 354 355 1 360 1 2 358 345 341 341 340 339 332 331 336 334 339 341 339 340 340 344 345 345 346 349 350 351 353 344 325 321 312 314 314
2 3 3 4 1 3 358 358 0 3 3 1 6 5 0 350 348 343 342 341 335 339 336 337 336 337 336 337 340 343 347 344 346 348 348 348 349 344 333 322 314 305 282
358 359 0 3 360 359 357 4 0 0 3 6 8 8 3 353 346 341 341 341 338 333 340 341 344 343 344 343 342 342 345 348 346 346 346 344 343 336 327 318 313 309 326
358 0 3 3 1 1 359 359 2 4 5 9 9 8 3 357 347 343 341 340 338 338 343 343 344 348 346 345 342 343 347 348 350 350 349 349 349 335 321 312 309 305 296
360 1 3 2 2 359 359 359 4 4 8 7 9 8 8 2 353 346 339 339 343 342 340 342 346 347 347 345 343 344 346 348 352 352 344 335 339 338 315 306 306 295 303
360 0 3 1 356 358 359 1 3 5 6 7 7 8 7 4 3 355 344 348 344 340 340 342 344 343 346 343 340 341 342 343 345 333 332 334 338 339 319 308 303 298 301
0 1 2 4 358 356 356 359 2 5 5 4 4 3 5 3 4 358 352 346 344 341 338 340 344 344 343 342 340 339 338 338 329 315 320 329 348 345 343 309 311 310 302
359 0 359 1 3 358 356 2 4 6 5 3 3 4 1 2 2 356 349 342 341 341 343 345 345 346 342 340 341 341 340 336 326 320 322 328 340 338 352 335 320 308 306
0 2 1 356 357 359 357 3 4 5 5 5 5 8 9 18 5 356 353 343 337 337 340 343 344 342 336 340 344 342 340 336 329 326 328 331 334 333 331 326 328 318 310
4 2 358 359 356 357 2 4 7 11 8 7 9 10 12 10 3 1 355 351 346 346 346 347 347 346 348 350 349 350 345 344 342 334 332 330 327 325 324 317 314 321 312
3 357 356 357 1 358 2 14 14 11 9 9 10 9 7 4 1 357 347 347 353 353 359 359 0 0 0 3 6 10 17 13 355 342 335 338 338 335 333 324 315 306 308
6 3 356 350 341 2 7 15 14 14 13 12 8 8 6 6 6 360 360 5 7 8 7 13 14 13 16 24 24 26 28 18 6 9 1 355 360 355 2 327 306 300 293
26 26 54 46 29 7 14 16 19 16 16 14 12 10 8 9 4 3 6 9 12 10 19 21 19 20 22 29 27 25 21 17 10 7 1 358 3 16 33 339 306 298 290
29 22 20 25 13 11 19 17 21 21 25 23 20 16 13 9 359 6 11 17 18 15 22 24 25 26 28 28 26 28 27 23 16 14 6 354 5 25 38 2 321 301 288
12 24 5 11 9 13 13 16 18 25 29 21 17 18 18 9 8 11 14 19 19 14 23 26 26 29 28 28 28 25 25 25 18 15 13 14 10 23 39 34 316 301 290
358 6 0 354 359 6 9 14 20 15 8 9 18 18 16 6 10 19 13 16 13 18 24 23 24 27 26 27 27 29 27 27 23 17 15 21 31 12 49 51 300 286 279
360 360 3 12 11 7 12 12 13 12 10 11 11 12 11 357 23 31 16 17 17 19 23 23 23 24 25 25 26 28 38 47 60 57 61 29 359 25 66 107 225 274 259
0 9 11 12 12 6 5 10 12 12 9 9 11 10 8 6 22 20 21 22 19 20 17 19 22 22 23 23 30 37 43 51 60 73 85 103 312 322 187 196 192 233 262
4 13 15 11 1 1 5 10 9 8 8 8 12 12 7 23 26 27 30 27 23 22 20 23 22 21 20 26 23 31 41 53 65 78 133 111 158 242 240 216 207 206 222
1 2 5 2 356 359 5 9 7 9 7 10 11 13 21 29 31 39 35 30 24 23 22 17 19 21 20 7 7 14 22 30 40 76 104 143 152 198 243 238 228 223 219
3 4 7 8 7 5 10 8 10 11 10 14 9 16 25 30 45 41 29 30 26 20 355 23 23 22 14 10 15 24 22 24 29 43 65 164 181 198 205 213 230 233 231
8 11 10 5 7 15 11 12 13 16 14 10 10 19 29 39 19 296 21 33 17 355 345 18 18 2 3 6 23 27 27 17 292 278 189 201 193 195 195 194 197 209 224
9 7 6 8 11 14 17 14 14 17 11 10 17 27 32 297 310 283 15 333 327 350 338 349 356 356 5 351 4 16 11 340 327 133 143 147 164 179 181 176 177 182 188
8 8 8 12 15 21 18 19 20 17 10 17 25 29 43 292 285 287 331 303 325 341 322 332 326 336 334 358 4 14 39 51 75 101 105 113 127 147 159 166 164 166 169